Location: Bronschhofen
(47.4788°N, 9.0353°E)
Time: 07:32:17
(UTC+00:00)

Meteor 1-21 - Visible Passes

Search period start: 06 October 2022 00:00
Search period end: 16 October 2022 00:00
Orbit: 846 x 885 km, 81.2° (Epoch: 05 October)

Date Brightness Start Highest point End Pass type
(mag) Time Alt. Az. Time Alt. Az. Time Alt. Az.
06 Oct 6.3 17:35:24 10° NNW 17:40:25 33° W 17:45:21 10° SSW visible
07 Oct 6.3 17:27:55 10° NNW 17:32:54 32° W 17:37:50 10° SSW visible
08 Oct 5.9 04:59:29 10° SSE 05:04:52 41° E 05:10:15 10° NNE visible
08 Oct 6.4 17:20:25 10° NNW 17:25:24 32° W 17:30:20 10° SSW visible
09 Oct 5.9 04:51:59 10° SSE 04:57:22 41° E 05:02:45 10° NNE visible
09 Oct 6.4 17:12:56 10° NNW 17:17:54 32° W 17:22:48 10° SSW visible
10 Oct 5.8 04:44:29 10° SSE 04:49:52 42° E 04:55:16 10° NNE visible
11 Oct 5.8 04:36:58 10° SSE 04:42:22 42° E 04:47:45 10° NNE visible
12 Oct 5.7 04:29:28 10° SSE 04:34:52 42° E 04:40:16 10° NNE visible
13 Oct 5.7 04:21:58 10° SSE 04:27:22 42° E 04:32:45 10° NNE visible
14 Oct 5.6 04:14:28 10° SSE 04:19:52 42° E 04:25:16 10° NNE visible
15 Oct 5.6 04:06:58 10° SSE 04:12:22 43° E 04:17:45 10° NNE visible
